Regional Weather Roundup
Issued by NWS New Orleans/Baton Rouge, LA

Home | Current Version | Previous Version | Text Only | Print | Product List | Glossary On
Versions: 1 2 3 4 5 6 7 8 9 10 11 12 13 14 15 16 17 18 19 20 21 22 23 24 25 26 27 28 29 30 31 32 33 34 35 36 37 38 39 40 41 42 43 44 45 46 47 48 49 50
000
ASUS44 KLIX 031311
RWRLIX
NEW ORLEANS REGIONAL WEATHER ROUNDUP
NATIONAL WEATHER SERVICE NEW ORLEANS LA
800 AM CDT SUN MAY 03 2015

NOTE: "FAIR" INDICATES FEW OR NO CLOUDS BELOW 12,000 FEET WITH NO
      SIGNIFICANT WEATHER AND/OR OBSTRUCTIONS TO VISIBILITY.
      SKY/WX - SKY CONDITION AND SIGNIFICANT WEATHER.
      TMP - AIR TEMPERATURE.     DP    - DEWPOINT TEMPERATURE.
      RH  - RELATIVE HUMIDITY.   PRES  - PRESSURE.
      HI  - HEAT INDEX.          WCI   - WIND CHILL INDEX.

*  THESE STATIONS ARE NOT NWS OR FAA STATIONS AND ARE NOT UNDER
   NWS QUALITY CONTROL.

LAZ038-040-048-061>063-065>067-069-031400-
SOUTHEAST LOUISIANA

CITY           SKY/WX    TMP DP  RH WIND       PRES   REMARKS
N.O. AUDUBON     N/A     73  64  73 MISG        N/A
N.O. INTL ARPT MOSUNNY   72  62  71 CALM      30.10R
N.O. LAKEFRONT SUNNY     72  61  68 SE8       30.11R
SLIDELL        SUNNY     65  62  90 CALM      30.11R
BATON ROUGE    CLOUDY    64  62  93 CALM      30.10R FOG
BOOTHVILLE     SUNNY     70  61  73 E5        30.11R
BELLE CHASSE   SUNNY     70  63  78 CALM      30.10R
BOGALUSA*        N/A     60  55  85 CALM      30.13R
GALLIANO*      SUNNY     68  66  94 CALM      30.10R
NEW ROADS*     CLOUDY    65  62  92 CALM      30.10R FOG
GONZALES*        N/A     65  65 100 CALM      30.09R FOG
HAMMOND*       SUNNY     66  61  82 CALM      30.12R
HOUMA*         MOSUNNY   72  66  83 CALM      30.10R
PORT FOURCHON* SUNNY     75  59  57 SE3       30.13R

$$

MSZ070-080>082-031400-
SOUTHERN MISSISSIPPI

CITY           SKY/WX    TMP DP  RH WIND       PRES   REMARKS
MCCOMB         MOSUNNY   64  61  90 SE3       30.11R
GULFPORT       SUNNY     64  57  78 CALM      30.12R
BILOXI         SUNNY     64  59  82 E2        30.12R
PASCAGOULA     SUNNY     63  59  87 CALM      30.13R
STENNIS ARPT*  SUNNY     63  55  77 MISG      30.12R

$$

COASTAL OBSERVATIONS
LAKE AND NEARSHORE STATIONS

STATION/POSITION TIME  TEMP    WIND        PRES    WAVE
                       AIR SEA DIR/SP/G            HT/PER
                 (UTC) (F)     (DEG/KT/KT) (MB)    (FT/S)
PASCAGOULA       1200   61      70/  3/  3 1018.9
WAVELAND YACHT   1200   63 70   50/  4/  5 1019.2
GRAND ISLE       1200   73 78  140/  3/  5 1018.4
SOUTHWEST PASS   1200   69 66  100/  6/  7 1019.1
NEW CANAL        1212   69 74  120/  1/  3 1019.4
SHELL BEACH      1200   69 74  120/  5/  6 1018.4

OFFSHORE STATIONS

STATION/POSITION TIME  TEMP    WIND        PRES    WAVE
                       AIR SEA DIR/SP/G            HT/PER
                 (UTC) (F)     (DEG/KT/KT) (MB)    (FT/S)
64 S DAUPHIN ISL 1250   73 74  130/  6/  8 1019.9    1

$$



USA.gov is the U.S. government's official web portal to all federal, state and local government web resources and services.